KJ6BBX Weather Reports


time (UTC)temp
C
wind
direction
speed
KPH
gust
KPH
rain 1hr
cm
rain 24hr
cm
rain mn
cm
humidity
%
barometer
mb
20260507040514 15 206 0.0 0.0 0.00 0.00 0.00 78 1008.9
20260507035014 15 205 0.0 0.0 0.00 0.00 0.00 78 1008.9
20260507033514 16 209 0.0 0.0 0.00 0.00 0.00 77 1008.6
20260507032014 16 208 0.0 0.0 0.00 0.00 0.00 76 1008.6
20260507030513 16 208 0.0 0.0 0.00 0.00 0.00 74 1008.5
20260507025014 17 208 0.0 0.0 0.00 0.00 0.00 73 1008.5
20260507023514 17 209 0.0 0.0 0.00 0.00 0.00 70 1008.5
20260507022014 17 206 0.0 1.6 0.00 0.00 0.00 67 1008.3
20260507020514 18 205 0.0 0.0 0.00 0.00 0.00 67 1008.0
20260507015014 18 204 1.6 1.6 0.00 0.00 0.00 64 1007.9
20260507013514 19 206 0.0 0.0 0.00 0.00 0.00 64 1007.8
20260507012014 20 70 0.0 3.2 0.00 0.00 0.00 63 1007.8
20260507010514 20 208 0.0 1.6 0.00 0.00 0.00 61 1007.7
20260507005014 21 326 1.6 3.2 0.00 0.00 0.00 60 1007.6
20260507003514 21 238 1.6 1.6 0.00 0.00 0.00 58 1007.7
20260507002014 21 146 4.8 4.8 0.00 0.00 0.00 59 1007.6
20260507000513 22 213 1.6 3.2 0.00 0.00 0.00 56 1007.5
20260506235014 22 196 1.6 1.6 0.00 0.00 0.00 56 1007.6
20260506233513 22 283 1.6 3.2 0.00 0.00 0.00 56 1007.7
20260506232014 23 228 1.6 1.6 0.00 0.00 0.00 56 1007.6
20260506230514 23 123 4.8 4.8 0.00 0.00 0.00 54 1007.6
20260506225014 23 131 3.2 3.2 0.00 0.00 0.00 55 1007.5
20260506223514 25 201 3.2 3.2 0.00 0.00 0.00 53 1007.7
20260506222014 25 301 1.6 1.6 0.00 0.00 0.00 53 1007.9
20260506220514 25 220 1.6 3.2 0.00 0.00 0.00 53 1008.0
20260506215014 25 191 1.6 3.2 0.00 0.00 0.00 52 1008.2
20260506213515 25 191 0.0 1.6 0.00 0.00 0.00 53 1008.5
20260506212014 25 93 3.2 4.8 0.00 0.00 0.00 51 1008.4
20260506210514 25 239 1.6 1.6 0.00 0.00 0.00 52 1008.5
20260506205014 25 160 1.6 3.2 0.00 0.00 0.00 52 1008.8
20260506203514 25 141 3.2 8.0 0.00 0.00 0.00 50 1008.7
20260506202014 25 163 6.4 9.7 0.00 0.00 0.00 49 1009.0
20260506200514 24 170 3.2 4.8 0.00 0.00 0.00 51 1009.1
20260506195014 25 201 0.0 0.0 0.00 0.00 0.00 51 1009.2
20260506193514 23 172 3.2 3.2 0.00 0.00 0.00 53 1009.5
20260506192014 23 229 3.2 4.8 0.00 0.00 0.00 53 1009.7
20260506190515 23 239 0.0 0.0 0.00 0.00 0.00 55 1009.7
20260506185014 21 187 1.6 1.6 0.00 0.00 0.00 57 1009.9
20260506183514 21 204 0.0 0.0 0.00 0.00 0.00 60 1010.0
20260506182015 22 214 0.0 0.0 0.00 0.00 0.00 58 1010.0
20260506180514 20 185 3.2 3.2 0.00 0.00 0.00 60 1010.3
20260506175014 21 208 1.6 1.6 0.00 0.00 0.00 59 1010.6
20260506173514 20 156 4.8 4.8 0.00 0.00 0.00 60 1010.1
20260506172014 20 192 0.0 1.6 0.00 0.00 0.00 64 1010.3
20260506170514 18 198 0.0 0.0 0.00 0.00 0.00 67 1010.1
20260506165015 18 182 0.0 0.0 0.00 0.00 0.00 68 1010.3
20260506163514 18 171 4.8 4.8 0.00 0.00 0.00 67 1010.2
20260506162015 17 205 0.0 0.0 0.00 0.00 0.00 72 1010.4
20260506160514 16 178 3.2 3.2 0.00 0.00 0.00 74 1010.3
20260506155014 15 169 1.6 3.2 0.00 0.00 0.00 78 1010.5
20260506153514 15 201 1.6 1.6 0.00 0.00 0.00 81 1010.4
20260506152014 13 196 0.0 0.0 0.00 0.00 0.00 85 1010.5
20260506150514 13 183 1.6 1.6 0.00 0.00 0.00 86 1010.5
20260506145014 13 210 3.2 4.8 0.00 0.00 0.00 87 1010.2
20260506143514 12 207 0.0 0.0 0.00 0.00 0.00 89 1010.5
20260506142014 11 240 0.0 0.0 0.00 0.00 0.00 95 1010.4
20260506140514 10 220 0.0 0.0 0.00 0.00 0.00 96 1010.2
20260506135014 10 220 0.0 0.0 0.00 0.00 0.00 96 1010.1
20260506133514 10 220 0.0 0.0 0.00 0.00 0.00 96 1010.0
20260506132014 9 220 0.0 0.0 0.00 0.00 0.00 96 1010.0
20260506130515 10 220 0.0 0.0 0.00 0.00 0.00 96 1009.9
20260506125014 10 220 0.0 0.0 0.00 0.00 0.00 95 1009.6
20260506123514 10 220 0.0 0.0 0.00 0.00 0.00 95 1009.5
20260506122013 10 220 0.0 0.0 0.00 0.00 0.00 95 1009.2
20260506120515 10 220 0.0 0.0 0.00 0.00 0.00 94 1009.1
20260506115014 10 220 0.0 0.0 0.00 0.00 0.00 93 1009.1
20260506113513 10 220 0.0 0.0 0.00 0.00 0.00 93 1009.1
20260506112013 10 220 0.0 0.0 0.00 0.00 0.00 92 1009.0
20260506110514 10 220 0.0 0.0 0.00 0.00 0.00 90 1009.2
20260506105014 10 220 0.0 0.0 0.00 0.00 0.00 90 1009.3
20260506103514 10 220 0.0 0.0 0.00 0.00 0.00 90 1009.2
20260506102014 10 220 0.0 0.0 0.00 0.00 0.00 89 1009.3
20260506100514 10 220 0.0 0.0 0.00 0.00 0.00 88 1009.4
20260506095014 10 220 0.0 0.0 0.00 0.00 0.00 88 1009.3
20260506093514 10 220 0.0 0.0 0.00 0.00 0.00 87 1009.3
20260506092014 10 220 0.0 0.0 0.00 0.00 0.00 87 1009.2
20260506090515 10 220 0.0 0.0 0.00 0.00 0.00 86 1009.4
20260506085014 11 220 0.0 0.0 0.00 0.00 0.00 83 1009.6
20260506083517 11 220 0.0 0.0 0.00 0.00 0.00 84 1009.4
20260506082014 11 220 0.0 0.0 0.00 0.00 0.00 84 1009.6
20260506080514 11 220 0.0 0.0 0.00 0.00 0.00 84 1009.6
20260506073514 11 220 0.0 0.0 0.00 0.00 0.00 85 1009.9
20260506072014 11 220 0.0 0.0 0.00 0.00 0.00 84 1009.6
20260506070513 11 219 0.0 0.0 0.00 0.00 0.00 84 1009.6
20260506062013 11 217 0.0 0.0 0.00 0.00 0.00 83 1009.1
20260506060514 12 217 0.0 0.0 0.00 0.00 0.00 83 1009.0
20260506050514 12 216 0.0 0.0 0.00 0.00 0.00 81 1008.7
20260506045013 12 214 0.0 0.0 0.00 0.00 0.00 80 1008.4
20260506043514 12 209 0.0 0.0 0.00 0.00 0.00 79 1008.3
20260506042013 13 208 0.0 0.0 0.00 0.00 0.00 79 1008.0